TimeEST,TemperatureF,Dew PointF,Humidity,Sea Level PressureIn,VisibilityMPH,Wind Direction,Wind SpeedMPH,Gust SpeedMPH,PrecipitationIn,Events,Conditions,WindDirDegrees,DateUTC
12:54 AM,37.0,24.1,59,29.84,10.0,ENE,15.0,-,N/A,,Overcast,70,2013-02-26 05:54:00
1:54 AM,37.9,24.1,57,29.79,10.0,ENE,19.6,27.6,N/A,,Overcast,70,2013-02-26 06:54:00
2:54 AM,37.0,24.1,59,29.74,10.0,ENE,16.1,-,N/A,,Mostly Cloudy,70,2013-02-26 07:54:00
3:54 AM,37.0,24.1,59,29.68,10.0,ENE,20.7,27.6,N/A,,Overcast,60,2013-02-26 08:54:00
4:54 AM,37.0,24.1,59,29.61,10.0,ENE,19.6,28.8,N/A,,Overcast,60,2013-02-26 09:54:00
5:54 AM,36.0,28.0,73,29.67,5.0,ENE,12.7,21.9,0.02,Rain,Light Rain,70,2013-02-26 10:54:00
6:54 AM,33.1,30.0,89,29.62,3.0,NE,15.0,-,0.21,Rain,Rain,50,2013-02-26 11:54:00
7:38 AM,33.8,30.2,87,29.55,2.5,ENE,20.7,-,0.13,Rain,Rain,60,2013-02-26 12:38:00
7:54 AM,33.1,30.0,89,29.56,2.5,ENE,24.2,32.2,0.18,Rain,Heavy Rain,60,2013-02-26 12:54:00
8:03 AM,33.8,30.2,87,29.54,1.5,ENE,21.9,32.2,0.05,Rain,Heavy Rain,60,2013-02-26 13:03:00
8:20 AM,33.8,30.2,87,29.52,2.5,ENE,21.9,32.2,0.10,Rain,Rain,60,2013-02-26 13:20:00
8:32 AM,33.8,30.2,87,29.48,1.8,ENE,23.0,32.2,0.12,Rain,Light Rain,60,2013-02-26 13:32:00
8:45 AM,33.8,30.2,87,29.48,3.0,ENE,20.7,31.1,0.16,Rain,Light Rain,60,2013-02-26 13:45:00
8:54 AM,33.1,30.9,92,29.50,3.0,ENE,23.0,33.4,0.16,Rain,Light Rain,60,2013-02-26 13:54:00
9:24 AM,33.8,32.0,93,29.52,1.2,Variable,4.6,24.2,0.02,Rain,Heavy Rain,0,2013-02-26 14:24:00
9:54 AM,34.0,32.0,92,29.53,1.2,ENE,11.5,-,0.19,Rain,Rain,70,2013-02-26 14:54:00
10:01 AM,33.8,33.8,100,29.50,1.2,ENE,13.8,-,0.02,Rain,Rain,70,2013-02-26 15:01:00
10:21 AM,35.6,33.8,93,29.51,1.5,ENE,10.4,-,0.10,Rain,Rain,70,2013-02-26 15:21:00
10:39 AM,35.6,33.8,93,29.50,1.8,ENE,10.4,-,0.19,Rain,Rain,70,2013-02-26 15:39:00
10:48 AM,35.6,33.8,93,29.49,2.0,ENE,12.7,-,0.22,Rain,Rain,70,2013-02-26 15:48:00
10:49 AM,35.1,34.0,96,29.51,2.0,ENE,12.7,-,0.22,Rain,Rain,70,2013-02-26 15:49:00
11:36 AM,35.6,33.8,93,29.46,3.0,ENE,13.8,19.6,0.07,Rain,Light Rain,70,2013-02-26 16:36:00
11:54 AM,37.0,35.1,93,29.46,2.5,ENE,12.7,-,0.07,,Light Drizzle,70,2013-02-26 16:54:00
12:32 PM,37.4,35.6,93,29.43,4.0,East,12.7,-,0.00,,Light Drizzle,80,2013-02-26 17:32:00
12:54 PM,37.9,36.0,93,29.43,3.0,ENE,12.7,20.7,0.01,,Light Drizzle,70,2013-02-26 17:54:00
1:54 PM,39.0,37.0,93,29.40,4.0,East,11.5,-,0.02,Rain,Light Rain,80,2013-02-26 18:54:00
2:36 PM,39.2,37.4,93,29.37,1.2,East,4.6,-,0.00,Rain,Light Rain,80,2013-02-26 19:36:00
2:54 PM,39.9,39.0,97,29.39,1.5,East,4.6,-,0.00,,Light Drizzle,90,2013-02-26 19:54:00
3:50 PM,39.2,39.2,100,29.38,2.0,ENE,3.5,-,0.10,Rain,Light Rain,60,2013-02-26 20:50:00
3:54 PM,39.9,39.0,97,29.39,2.0,Calm,Calm,-,0.11,Rain,Light Rain,0,2013-02-26 20:54:00
4:08 PM,39.2,39.2,100,29.38,2.5,NE,4.6,-,0.01,Rain,Light Rain,50,2013-02-26 21:08:00
4:54 PM,41.0,39.9,96,29.39,2.5,Calm,Calm,-,0.02,Rain,Light Rain,0,2013-02-26 21:54:00
5:27 PM,41.0,39.2,93,29.39,2.5,Calm,Calm,-,0.00,,Overcast,0,2013-02-26 22:27:00
5:54 PM,41.0,39.9,96,29.41,2.5,South,3.5,-,0.00,Rain,Light Rain,180,2013-02-26 22:54:00
6:24 PM,41.0,39.2,93,29.40,3.0,South,3.5,-,0.02,Rain,Light Rain,180,2013-02-26 23:24:00
6:54 PM,39.9,39.9,100,29.43,3.0,SW,5.8,-,0.03,Rain,Light Rain,230,2013-02-26 23:54:00
7:54 PM,39.9,39.9,100,29.45,3.0,SW,6.9,-,0.02,Rain,Light Rain,220,2013-02-27 00:54:00
8:21 PM,41.0,39.2,93,29.44,3.0,SW,9.2,-,0.00,Rain,Light Rain,220,2013-02-27 01:21:00
8:54 PM,41.0,39.9,96,29.46,5.0,SW,9.2,-,0.00,,Light Drizzle,220,2013-02-27 01:54:00
9:54 PM,41.0,39.9,96,29.47,9.0,SW,16.1,-,0.00,,Overcast,220,2013-02-27 02:54:00
10:37 PM,41.0,39.2,93,29.46,6.0,SW,16.1,-,0.00,Rain,Light Rain,230,2013-02-27 03:37:00
10:54 PM,41.0,39.0,93,29.47,7.0,SW,17.3,-,0.00,Rain,Light Rain,230,2013-02-27 03:54:00
11:46 PM,41.0,37.4,87,29.47,10.0,SW,15.0,-,0.00,,Overcast,220,2013-02-27 04:46:00
11:54 PM,41.0,37.9,89,29.48,10.0,SW,13.8,-,0.00,,Overcast,220,2013-02-27 04:54:00